| time (UTC) | temp F | wind direction | speed knots | gust knots | rain 1hr in | rain 24hr in | rain mn in | humidity % | barometer mb |
| 20260505034554 | 55 | 339 | 1.7 | 7.8 | 0.00 | 0.06 | 0.00 | 94 | 1009.2 |
| 20260505033054 | 55 | 360 | 1.7 | 3.5 | 0.00 | 0.06 | 0.00 | 94 | 1009.1 |
| 20260505031556 | 55 | 0 | 0.0 | 3.5 | 0.00 | 0.06 | 0.00 | 94 | 1009.4 |
| 20260505030051 | 55 | 0 | 0.9 | 4.3 | 0.00 | 0.06 | 0.00 | 94 | 1009.6 |
| 20260505024601 | 55 | 328 | 0.0 | 3.5 | 0.00 | 0.06 | 0.00 | 94 | 1009.9 |
| 20260505023054 | 55 | 324 | 0.0 | 3.5 | 0.00 | 0.06 | 0.00 | 94 | 1010.1 |
| 20260505021551 | 55 | 0 | 0.0 | 2.6 | 0.00 | 0.06 | 0.00 | 94 | 1010.0 |
| 20260505020051 | 55 | 317 | 0.9 | 5.2 | 0.00 | 0.06 | 0.00 | 94 | 1009.6 |
| 20260505014551 | 55 | 315 | 0.9 | 3.5 | 0.00 | 0.06 | 0.00 | 94 | 1009.8 |
| 20260505013116 | 55 | 0 | 0.0 | 4.3 | 0.00 | 0.06 | 0.00 | 94 | 1010.1 |
| 20260505011558 | 55 | 340 | 0.9 | 3.5 | 0.00 | 0.06 | 0.00 | 94 | 1010.3 |
| 20260505004557 | 55 | 344 | 0.0 | 2.6 | 0.00 | 0.06 | 0.00 | 94 | 1010.4 |
| 20260505003050 | 56 | 302 | 0.0 | 1.7 | 0.00 | 0.06 | 0.00 | 94 | 1010.3 |
| 20260505001552 | 56 | 326 | 0.0 | 1.7 | 0.00 | 0.06 | 0.00 | 94 | 1010.4 |
| 20260505000108 | 56 | 48 | 0.0 | 1.7 | 0.00 | 0.06 | 0.00 | 94 | 1010.5 |
| 20260504234554 | 56 | 304 | 1.7 | 3.5 | 0.00 | 0.06 | 0.00 | 94 | 1010.5 |
| 20260504233106 | 55 | 0 | 0.9 | 7.0 | 0.00 | 0.06 | 0.00 | 94 | 1010.3 |
| 20260504231557 | 56 | 360 | 0.0 | 2.6 | 0.00 | 0.06 | 0.00 | 94 | 1010.3 |
| 20260504230106 | 56 | 0 | 0.0 | 0.9 | 0.00 | 0.06 | 0.00 | 94 | 1010.7 |
| 20260504224554 | 56 | 0 | 0.0 | 1.7 | 0.00 | 0.06 | 0.00 | 94 | 1011.0 |
| 20260504223058 | 56 | 300 | 0.0 | 0.9 | 0.00 | 0.06 | 0.00 | 94 | 1011.2 |
| 20260504221552 | 56 | 0 | 0.0 | 2.6 | 0.00 | 0.06 | 0.00 | 94 | 1011.3 |
| 20260504220050 | 56 | 0 | 0.0 | 1.7 | 0.00 | 0.06 | 0.00 | 94 | 1011.4 |
| 20260504214606 | 56 | 0 | 0.0 | 0.9 | 0.00 | 0.06 | 0.06 | 93 | 1011.6 |
| 20260504213059 | 56 | 335 | 0.0 | 3.5 | 0.00 | 0.06 | 0.06 | 93 | 1011.7 |
| 20260504211556 | 56 | 0 | 0.0 | 0.9 | 0.00 | 0.06 | 0.06 | 93 | 1011.7 |
| 20260504210051 | 56 | 0 | 0.0 | 0.0 | 0.00 | 0.06 | 0.06 | 93 | 1011.8 |
| 20260504204553 | 56 | 0 | 0.0 | 0.9 | 0.00 | 0.06 | 0.06 | 93 | 1011.7 |
| 20260504203103 | 56 | 0 | 0.0 | 0.9 | 0.00 | 0.06 | 0.06 | 93 | 1011.7 |
| 20260504201613 | 56 | 0 | 0.0 | 0.9 | 0.00 | 0.06 | 0.06 | 93 | 1011.7 |
| 20260504200055 | 56 | 0 | 0.0 | 0.9 | 0.00 | 0.06 | 0.06 | 93 | 1011.8 |
| 20260504194553 | 57 | 0 | 0.0 | 0.9 | 0.00 | 0.06 | 0.06 | 93 | 1011.9 |
| 20260504193052 | 57 | 0 | 0.0 | 1.7 | 0.00 | 0.06 | 0.06 | 93 | 1011.9 |
| 20260504191559 | 57 | 0 | 0.0 | 2.6 | 0.00 | 0.06 | 0.06 | 92 | 1011.8 |
| 20260504190110 | 57 | 0 | 0.0 | 0.9 | 0.00 | 0.06 | 0.06 | 92 | 1011.7 |
| 20260504184641 | 57 | 0 | 0.0 | 0.0 | 0.00 | 0.07 | 0.06 | 92 | 1011.7 |
| 20260504183053 | 57 | 0 | 0.0 | 2.6 | 0.00 | 0.07 | 0.06 | 92 | 1011.6 |
| 20260504181559 | 57 | 0 | 0.0 | 0.9 | 0.00 | 0.07 | 0.06 | 91 | 1011.5 |
| 20260504180055 | 57 | 0 | 0.0 | 1.7 | 0.00 | 0.07 | 0.06 | 91 | 1011.5 |
| 20260504174556 | 57 | 0 | 0.0 | 0.0 | 0.00 | 0.07 | 0.06 | 90 | 1011.5 |
| 20260504173056 | 58 | 0 | 0.0 | 0.0 | 0.00 | 0.07 | 0.06 | 90 | 1011.4 |
| 20260504171600 | 58 | 0 | 0.0 | 0.0 | 0.00 | 0.07 | 0.06 | 90 | 1011.4 |
| 20260504160104 | 57 | 0 | 0.0 | 0.9 | 0.03 | 0.07 | 0.05 | 88 | 1011.6 |
| 20260504140107 | 59 | 0 | 0.0 | 2.6 | 0.00 | 0.03 | 0.01 | 88 | 1012.2 |
| 20260504120108 | 58 | 340 | 0.9 | 3.5 | 0.00 | 0.02 | 0.00 | 87 | 1012.6 |
| 20260504081550 | 56 | 0 | 0.0 | 0.0 | 0.00 | 0.03 | 0.00 | 92 | 1013.0 |
| 20260504080104 | 56 | 0 | 0.0 | 0.0 | 0.00 | 0.03 | 0.00 | 92 | 1013.0 |
| 20260504044551 | 54 | 0 | 0.0 | 1.7 | 0.00 | 0.14 | 0.00 | 93 | 1011.9 |
| 20260504043051 | 54 | 0 | 0.0 | 0.9 | 0.00 | 0.14 | 0.00 | 93 | 1011.9 |
| 20260504041549 | 54 | 0 | 0.0 | 0.9 | 0.00 | 0.14 | 0.00 | 93 | 1011.8 |
| 20260504040052 | 54 | 0 | 0.0 | 1.7 | 0.00 | 0.14 | 0.00 | 93 | 1012.0 |